Погода в Железнодорожном

Россия / Челябинская область     55°05′57″N   61°33′22″E
темп.,
°C
ветер,
м/с
пор.,
м/с
влажн.,
%
обл.,
%
осадки,
мм/ч
давл.,
гПа
погр.,
м
27 января, чт
чт2723:00−12ю5138693 0.0 1023253
02:00−13ююз6158776 0.0 1022296
05:00−12ююз51488100 0.0 1023257
08:00−12юз41389100 0.0 1024271
11:00−9юз51288100 0.0 1024334
14:00−7юз498640 0.0 1024393
17:00−12юз22935 0.0 102511
20:00−16юз22975 0.0 102622
28 января, пт
пт2823:00−18юз2299100 0.0 10269
02:00−18юз1198100 0.0 10279
05:00−19юз1110048 0.0 10279
08:00−21з11100100 0.0 10279
11:00−16ююз119678 0.0 102642
14:00−10ююз129091 0.0 1025136
17:00−14ююв1197100 0.0 10259
20:00−16юв1199100 0.0 10259
29 января, сб
сб2923:00−15в009892 0.1 102510
02:00−16св1199100 0.1 10249
05:00−17всв11100100 0.1 10249
08:00−17св11100100 0.0 102321
11:00−14в2392100 0.0 102297
14:00−11в2283100 0.0 1021156
17:00−13всв2294100 0.0 10209
20:00−15св1196100 0.0 10199
30 января, вс
вс3023:00−17з0098100 0.0 10189
02:00−19зсз22100100 0.0 101711
05:00−20з2299100 0.0 101613
08:00−20зюз229995 0.0 101622
11:00−14ююз22875 0.0 101554
14:00−9ююз36855 0.0 1014180
17:00−10ю389444 0.0 1013127
20:00−7ююз5139194 0.0 1013328
31 января, пн
пн3123:00−3ююз51391100 0.0 1012515
02:00−4ююз61488100 0.0 1013434
05:00−4юз6138860 0.0 1014377
08:00−6ююз6139016 0.0 1015343
11:00−5ююз61490100 0.0 1017414
14:00−4ююз6129088 0.0 1017514
17:00−5ююз5119086 0.0 1018325
20:00−7ююз51393100 0.0 1020243